When you browse on this site, cookies collect data to enhance your experience and personalize the content and advertising you see.
Visit our Privacy Policy to learn more. By continuing to use the site, you agree to this use of cookies and data.
  • In France
  • List of Countries
  • For 7 days
  • Water Temperature
  • Weather Map
  • Weather Widgets
  • user-avatar
    Login

    Hourly Weather Kosice

    Today, 30 May, Saturday

    Time Temperature Precipitation Wind Pressure Humidity
    00:00 +8°C° 0 mm 2 mps 738 mmHg 83%
    01:00 +7°C° 0 mm 2 mps 738 mmHg 84%
    02:00 +7°C° 0 mm 2 mps 737 mmHg 86%
    03:00 +7°C° 0 mm 2 mps 737 mmHg 88%
    04:00 +6°C° 0 mm 2 mps 737 mmHg 90%
    05:00 +8°C° 0 mm 3 mps 737 mmHg 82%
    06:00 +10°C° 0 mm 3 mps 737 mmHg 75%
    07:00 +12°C° 0 mm 4 mps 737 mmHg 67%
    08:00 +13°C° 0.1 mm 4 mps 737 mmHg 64%
    09:00 +14°C° 0.1 mm 4 mps 736 mmHg 61%
    10:00 +15°C° 0.1 mm 4 mps 736 mmHg 57%
    11:00 +15°C° 0.4 mm 4 mps 736 mmHg 59%
    12:00 +15°C° 0.4 mm 4 mps 736 mmHg 61%
    13:00 +17°C° 0.4 mm 4 mps 736 mmHg 63%
    14:00 +15°C° 0.3 mm 4 mps 736 mmHg 66%
    15:00 +15°C° 0.3 mm 5 mps 735 mmHg 68%
    16:00 +14°C° 0.3 mm 5 mps 735 mmHg 71%
    17:00 +13°C° 0.1 mm 4 mps 735 mmHg 74%
    18:00 +12°C° 0.1 mm 3 mps 735 mmHg 77%
    19:00 +10°C° 0.1 mm 3 mps 735 mmHg 81%
    20:00 +10°C° 0 mm 2 mps 735 mmHg 83%
    21:00 +9°C° 0 mm 2 mps 734 mmHg 85%
    22:00 +9°C° 0 mm 2 mps 734 mmHg 88%
    23:00 +9°C° 0.1 mm 2 mps 734 mmHg 88%

    Tomorrow, 31 May, Sunday

    Time Temperature Precipitation Wind Pressure Humidity
    00:00 +9°C° 0.1 mm 2 mps 734 mmHg 88%
    01:00 +9°C° 0.1 mm 2 mps 733 mmHg 88%
    02:00 +9°C° 0.3 mm 2 mps 733 mmHg 90%
    03:00 +9°C° 0.3 mm 2 mps 732 mmHg 92%
    04:00 +9°C° 0.3 mm 2 mps 732 mmHg 94%
    05:00 +9°C° 0.5 mm 2 mps 732 mmHg 93%
    06:00 +10°C° 0.5 mm 3 mps 732 mmHg 93%
    07:00 +10°C° 0.5 mm 3 mps 732 mmHg 92%
    08:00 +10°C° 0.2 mm 3 mps 732 mmHg 90%
    09:00 +11°C° 0.2 mm 3 mps 732 mmHg 88%
    10:00 +11°C° 0.2 mm 4 mps 732 mmHg 86%
    11:00 +12°C° 0 mm 4 mps 732 mmHg 81%
    12:00 +13°C° 0 mm 4 mps 732 mmHg 77%
    13:00 +13°C° 0 mm 4 mps 732 mmHg 72%
    14:00 +14°C° 0 mm 4 mps 732 mmHg 72%
    15:00 +14°C° 0 mm 3 mps 732 mmHg 71%
    16:00 +14°C° 0 mm 3 mps 732 mmHg 71%
    17:00 +13°C° 0.1 mm 3 mps 732 mmHg 75%
    18:00 +12°C° 0.1 mm 3 mps 732 mmHg 80%
    19:00 +11°C° 0.1 mm 3 mps 733 mmHg 85%
    20:00 +11°C° 0.1 mm 3 mps 733 mmHg 88%
    21:00 +11°C° 0.1 mm 3 mps 733 mmHg 90%
    22:00 +10°C° 0.1 mm 3 mps 733 mmHg 93%
    23:00 +10°C° 0.1 mm 4 mps 734 mmHg 92%

    Day after tomorrow, 1 June, Monday

    Time Temperature Precipitation Wind Pressure Humidity
    00:00 +11°C° 0.1 mm 4 mps 734 mmHg 92%
    01:00 +11°C° 0.1 mm 4 mps 734 mmHg 92%
    02:00 +9°C° 0 mm 5 mps 734 mmHg 91%
    03:00 +9°C° 0 mm 5 mps 734 mmHg 90%
    04:00 +8°C° 0 mm 5 mps 734 mmHg 89%
    05:00 +9°C° 0 mm 6 mps 735 mmHg 84%
    06:00 +10°C° 0 mm 7 mps 735 mmHg 79%
    07:00 +11°C° 0 mm 7 mps 735 mmHg 74%
    08:00 +12°C° 0.1 mm 7 mps 736 mmHg 68%
    09:00 +13°C° 0.1 mm 8 mps 736 mmHg 62%
    10:00 +15°C° 0.1 mm 8 mps 736 mmHg 56%
    11:00 +15°C° 0 mm 8 mps 736 mmHg 54%
    12:00 +16°C° 0 mm 7 mps 736 mmHg 53%
    13:00 +16°C° 0 mm 7 mps 736 mmHg 52%
    14:00 +16°C° 0 mm 7 mps 736 mmHg 53%
    15:00 +15°C° 0 mm 7 mps 736 mmHg 55%
    16:00 +15°C° 0 mm 7 mps 736 mmHg 56%
    17:00 +14°C° 0 mm 6 mps 736 mmHg 62%
    18:00 +12°C° 0 mm 5 mps 736 mmHg 69%
    19:00 +11°C° 0 mm 4 mps 736 mmHg 75%
    20:00 +10°C° 0 mm 4 mps 737 mmHg 80%
    21:00 +8°C° 0 mm 3 mps 737 mmHg 84%
    22:00 +7°C° 0 mm 3 mps 737 mmHg 89%
    23:00 +7°C° 0 mm 3 mps 737 mmHg 89%

    2 June, Tuesday

    Time Temperature Precipitation Wind Pressure Humidity
    00:00 +6°C° 0 mm 2 mps 736 mmHg 90%
    01:00 +6°C° 0 mm 2 mps 736 mmHg 90%
    02:00 +5°C° 0 mm 2 mps 736 mmHg 90%
    03:00 +5°C° 0 mm 2 mps 735 mmHg 91%
    04:00 +5°C° 0 mm 2 mps 735 mmHg 91%
    05:00 +6°C° 0.3 mm 2 mps 735 mmHg 90%
    06:00 +8°C° 0.3 mm 2 mps 734 mmHg 89%
    07:00 +9°C° 0.3 mm 2 mps 734 mmHg 88%
    08:00 +10°C° 0.3 mm 3 mps 734 mmHg 79%
    09:00 +12°C° 0.3 mm 5 mps 734 mmHg 70%
    10:00 +13°C° 0.3 mm 6 mps 735 mmHg 62%
    11:00 +13°C° 0.1 mm 6 mps 734 mmHg 60%
    12:00 +14°C° 0.1 mm 6 mps 734 mmHg 58%
    13:00 +14°C° 0.1 mm 7 mps 734 mmHg 56%
    14:00 +13°C° 0.2 mm 6 mps 733 mmHg 61%
    15:00 +13°C° 0.2 mm 6 mps 733 mmHg 65%
    16:00 +12°C° 0.2 mm 5 mps 733 mmHg 69%
    17:00 +11°C° 0.1 mm 4 mps 733 mmHg 74%
    18:00 +10°C° 0.1 mm 4 mps 732 mmHg 78%
    19:00 +10°C° 0.1 mm 3 mps 732 mmHg 83%
    20:00 +9°C° 0.3 mm 2 mps 732 mmHg 86%
    21:00 +9°C° 0.3 mm 2 mps 732 mmHg 90%
    22:00 +9°C° 0.3 mm 2 mps 732 mmHg 93%
    23:00 +10°C° 0.3 mm 1 mps 731 mmHg 94%

    3 June, Wednesday

    Time Temperature Precipitation Wind Pressure Humidity
    00:00 +10°C° 0.3 mm 1 mps 731 mmHg 94%
    01:00 +10°C° 0.3 mm 1 mps 730 mmHg 94%
    02:00 +10°C° 0.4 mm 1 mps 730 mmHg 95%
    03:00 +10°C° 0.4 mm 1 mps 730 mmHg 95%
    04:00 +10°C° 0.4 mm 1 mps 730 mmHg 95%
    05:00 +9°C° 0.6 mm 2 mps 730 mmHg 95%
    06:00 +9°C° 0.6 mm 2 mps 730 mmHg 94%
    07:00 +9°C° 0.6 mm 2 mps 730 mmHg 94%
    08:00 +10°C° 0.4 mm 2 mps 730 mmHg 94%
    09:00 +10°C° 0.4 mm 2 mps 730 mmHg 93%
    10:00 +10°C° 0.4 mm 2 mps 730 mmHg 93%
    11:00 +10°C° 0.2 mm 2 mps 730 mmHg 93%
    12:00 +10°C° 0.2 mm 2 mps 730 mmHg 92%
    13:00 +10°C° 0.2 mm 2 mps 730 mmHg 92%
    14:00 +12°C° 0 mm 2 mps 730 mmHg 89%
    15:00 +11°C° 0 mm 3 mps 730 mmHg 87%
    16:00 +12°C° 0 mm 3 mps 730 mmHg 84%
    17:00 +11°C° 0 mm 3 mps 730 mmHg 85%
    18:00 +12°C° 0 mm 2 mps 730 mmHg 87%
    19:00 +10°C° 0 mm 2 mps 730 mmHg 88%
    20:00 +9°C° 0 mm 2 mps 731 mmHg 90%
    21:00 +8°C° 0 mm 2 mps 731 mmHg 92%
    22:00 +9°C° 0 mm 1 mps 731 mmHg 94%
    23:00 +9°C° 0 mm 1 mps 731 mmHg 93%

    4 June, Thursday

    Time Temperature Precipitation Wind Pressure Humidity
    00:00 +9°C° 0 mm 1 mps 731 mmHg 91%
    01:00 +9°C° 0 mm 1 mps 731 mmHg 90%
    02:00 +9°C° 0 mm 1 mps 731 mmHg 90%
    03:00 +9°C° 0 mm 1 mps 731 mmHg 91%
    04:00 +9°C° 0 mm 1 mps 731 mmHg 91%
    05:00 +9°C° 0 mm 0 mps 731 mmHg 87%
    06:00 +11°C° 0 mm 0 mps 731 mmHg 82%
    07:00 +12°C° 0 mm 0 mps 731 mmHg 78%
    08:00 +13°C° 0.2 mm 0 mps 731 mmHg 76%
    09:00 +15°C° 0.2 mm 1 mps 731 mmHg 75%
    10:00 +16°C° 0.2 mm 1 mps 731 mmHg 74%
    11:00 +16°C° 0.7 mm 1 mps 731 mmHg 74%
    12:00 +17°C° 0.7 mm 2 mps 731 mmHg 75%
    13:00 +17°C° 0.7 mm 2 mps 731 mmHg 75%
    14:00 +18°C° 0.5 mm 2 mps 731 mmHg 74%
    15:00 +18°C° 0.5 mm 2 mps 730 mmHg 74%
    16:00 +18°C° 0.5 mm 2 mps 730 mmHg 73%
    17:00 +17°C° 0.3 mm 2 mps 730 mmHg 79%
    18:00 +15°C° 0.3 mm 2 mps 730 mmHg 85%
    19:00 +14°C° 0.3 mm 1 mps 730 mmHg 90%
    20:00 +13°C° 0 mm 1 mps 731 mmHg 91%
    21:00 +12°C° 0 mm 1 mps 731 mmHg 92%
    22:00 +10°C° 0 mm 0 mps 731 mmHg 94%
    23:00 +10°C° 0 mm 0 mps 731 mmHg 94%
    Show more